Weather History for KMQE - October, 2013

Change the Weather History Date:

Thursday, October 24, 2013

  Actual Average (KBOS) Record (KBOS)
Temperature  
Mean Temperature 44 °F 51 °F  
Max Temperature 53 °F 59 °F 80 °F (1900)
Min Temperature 36 °F 44 °F 30 °F (1969)
Degree Days  
Heating Degree Days 22 14  
Month to date heating degree days 246  
Since 1 July heating degree days 343  
Cooling Degree Days 0 0  
Month to date cooling degree days 6  
Year to date cooling degree days 746  
Moisture  
Dew Point 27 °F    
Average Humidity 56    
Maximum Humidity 82    
Minimum Humidity 33    
Precipitation  
Precipitation 0.00 in 0.13 in 2.13 in (1883)
Month to date precipitation 3.06  
Year to date precipitation 35.12  
Sea Level Pressure  
Sea Level Pressure 29.80 in    
Wind  
Wind Speed 13 mph (West)    
Max Wind Speed 18 mph    
Max Gust Speed 29 mph    
T = Trace of Precipitation, MM = Missing Value Source: NWS Daily Summary

Daily Weather History Graph

Daily Weather History Graph

Search for Another Location

Airport or City:

Trip Planner

Search our weather history database for the weather conditions in past years. The results will help you decide how hot, cold, wet, or windy it might be!

Date:

Astronomy

Oct. 24, 2013 Rise Set
Actual Time 7:07 AM EDT 5:48 PM EDT
Civil Twilight 6:39 AM EDT 6:17 PM EDT
Nautical Twilight 6:06 AM EDT 6:49 PM EDT
Astronomical Twilight 5:34 AM EDT 7:22 PM EDT
Moon 10:07 PM EDT (10/24) 12:09 PM EDT (10/24)
Length of Visible Light 11h 37m
Length of Day
10h 40m
Waning Gibbous, 71% of the Moon is Illuminated
Oct 24
Waning Gibbous
Oct 26
Last Quarter
Nov 3
New
Nov 10
First Quarter
Nov 17
Full

Hourly Weather History & Observations

Time (EDT) Temp. Windchill Dew Point Humidity Pressure Visibility Wind Dir Wind Speed Gust Speed Precip Events Conditions
12:54 AM 44.1 °F 38.1 °F 33.1 °F 65% 29.67 in - WNW 11.5 mph 17.3 mph N/A   Unknown
1:54 AM 43.0 °F 37.2 °F 33.1 °F 68% 29.68 in - WNW 10.4 mph 17.3 mph N/A   Unknown
2:54 AM 41.0 °F 34.3 °F 33.1 °F 73% 29.69 in - West 11.5 mph - N/A   Unknown
3:54 AM 39.9 °F 32.1 °F 33.1 °F 77% 29.70 in - West 13.8 mph - N/A   Unknown
4:54 AM 37.9 °F 29.2 °F 32.0 °F 79% 29.73 in - West 15.0 mph - N/A   Unknown
5:54 AM 37.9 °F 29.2 °F 32.0 °F 79% 29.76 in - WNW 15.0 mph 21.9 mph N/A   Unknown
6:54 AM 36.0 °F 27.5 °F 30.9 °F 82% 29.78 in - West 12.7 mph - N/A   Unknown
7:54 AM 37.0 °F 29.3 °F 32.0 °F 82% 29.80 in - West 11.5 mph - N/A   Unknown
8:54 AM 39.0 °F 32.3 °F 32.0 °F 76% 29.83 in - West 10.4 mph 19.6 mph N/A   Unknown
10:54 AM 46.0 °F 39.3 °F 28.0 °F 50% 29.83 in - West 16.1 mph 26.5 mph N/A   Unknown
11:54 AM 48.0 °F - 26.1 °F 42% 29.82 in - West 17.3 mph 27.6 mph N/A   Unknown
12:54 PM 48.9 °F - 25.0 °F 39% 29.80 in - West 17.3 mph 28.8 mph N/A   Unknown
1:54 PM 48.9 °F - 24.1 °F 38% 29.79 in - West 16.1 mph 25.3 mph N/A   Unknown
2:54 PM 50.0 °F - 23.0 °F 35% 29.80 in - West 15.0 mph 28.8 mph N/A   Unknown
3:54 PM 51.1 °F - 23.0 °F 33% 29.81 in - West 11.5 mph 23.0 mph N/A   Unknown
4:54 PM 48.9 °F - 21.0 °F 33% 29.82 in - West 18.4 mph 27.6 mph N/A   Unknown
5:54 PM 46.9 °F - 21.0 °F 36% 29.83 in - WSW 12.7 mph 20.7 mph N/A   Unknown
6:54 PM 45.0 °F 39.7 °F 21.9 °F 40% 29.86 in - WSW 10.4 mph - N/A   Unknown
7:54 PM 43.0 °F 36.4 °F 23.0 °F 45% 29.88 in - WSW 12.7 mph - N/A   Unknown
8:54 PM 42.1 °F 35.7 °F 24.1 °F 49% 29.88 in - WSW 11.5 mph - N/A   Unknown
9:54 PM 41.0 °F 33.5 °F 25.0 °F 53% 29.90 in - WSW 13.8 mph - N/A   Unknown
10:54 PM 39.0 °F 30.6 °F 25.0 °F 57% 29.90 in - WSW 15.0 mph - N/A   Unknown
11:54 PM 39.0 °F 30.6 °F 26.1 °F 60% 29.91 in - West 15.0 mph - N/A   Unknown